GW3256 Weather Reports


time (UTC)temp
F
wind
direction
speed
knots
gust
knots
rain 1hr
in
rain 24hr
in
rain mn
in
humidity
%
barometer
mb
20260504224058 73 166 0.9 5.2 0.00 0.03 0.00 87 1398.0
20260504223558 73 125 2.6 4.3 0.00 0.03 0.00 87 1398.0
20260504223103 73 117 1.7 2.6 0.00 0.03 0.00 88 125.8
20260504222602 73 314 0.9 1.7 0.00 0.03 0.00 89 1615.1
20260504222057 73 36 0.9 1.7 0.00 0.03 0.00 89 219.2
20260504221612 72 11 0.9 5.2 0.00 0.03 0.00 89 818.6
20260504221100 71 0 1.7 5.2 0.00 0.03 0.00 89 217.9
20260504220600 71 140 1.7 2.6 0.00 0.03 0.00 89 124.6
20260504220058 71 61 0.0 1.7 0.00 0.03 0.00 89 1563.4
20260504215558 71 360 0.9 1.7 0.00 0.03 0.00 89 291.7
20260504215100 71 0 0.0 3.5 0.00 0.03 0.00 89 1211.8
20260504214610 70 0 1.7 3.5 0.00 0.03 0.00 89 155.7
20260504214058 71 150 1.7 3.5 0.00 0.03 0.00 89 1480.7
20260504213558 71 137 0.0 2.6 0.00 0.03 0.00 89 135.0
20260504213112 70 344 0.9 3.5 0.00 0.03 0.00 89 1211.8
20260504212558 70 350 2.6 4.3 0.00 0.03 0.00 89 1315.2
20260504212059 70 352 0.9 4.3 0.00 0.03 0.00 89 62.3
20260504211559 70 13 2.6 4.3 0.00 0.03 0.00 89 1966.7
20260504211058 70 9 0.9 2.6 0.00 0.03 0.00 89 549.5
20260504210558 70 315 1.7 2.6 0.00 0.03 0.00 89 1563.4
20260504210101 69 315 1.7 1.7 0.00 0.03 0.00 89 735.8
20260504205558 69 315 0.0 1.7 0.00 0.03 0.00 89 1398.0
20260504205058 69 0 0.0 1.7 0.00 0.03 0.00 89 2049.4
20260504204605 69 315 0.9 1.7 0.00 0.03 0.00 89 1470.4
20260504204057 69 0 0.0 2.6 0.00 0.03 0.00 89 41.5
20260504203559 69 0 0.0 2.6 0.00 0.03 0.00 89 302.1
20260504203100 69 315 0.9 2.6 0.00 0.03 0.00 89 477.0
20260504202558 69 98 1.7 2.6 0.00 0.03 0.00 89 1615.1
20260504202058 69 84 1.7 2.6 0.00 0.03 0.00 89 1625.5
20260504201600 69 79 0.9 3.5 0.00 0.03 0.00 89 1646.2
20260504201101 69 327 1.7 3.5 0.00 0.03 0.00 89 1977.0
20260504200558 69 348 2.6 3.5 0.00 0.03 0.00 89 2194.1
20260504200104 69 278 1.7 1.7 0.00 0.03 0.00 89 374.6
20260504195559 69 278 0.0 2.6 0.00 0.03 0.00 89 1708.2
20260504195058 69 178 0.9 2.6 0.00 0.03 0.00 89 787.6
20260504194601 69 149 1.7 2.6 0.00 0.03 0.00 89 145.3
20260504194058 69 50 0.9 1.7 0.00 0.03 0.00 89 787.6
20260504193601 69 322 0.9 1.7 0.00 0.03 0.00 89 953.2
20260504193102 69 322 0.9 1.7 0.00 0.03 0.00 89 880.7
20260504192557 69 322 0.0 1.7 0.00 0.03 0.00 89 549.5
20260504192057 69 322 0.9 1.7 0.00 0.03 0.00 89 1387.6
20260504191602 69 322 0.0 1.7 0.00 0.03 0.00 89 146.5
20260504191058 69 322 0.0 1.7 0.00 0.03 0.00 89 1480.7
20260504190558 69 0 0.0 1.7 0.00 0.03 0.00 89 374.6
20260504190059 69 322 0.0 1.7 0.00 0.03 0.00 89 73.9
20260504185557 69 0 0.0 1.7 0.00 0.03 0.00 89 146.5
20260504185058 69 322 0.0 1.7 0.00 0.03 0.00 89 5.8
20260504184559 69 322 0.9 1.7 0.00 0.03 0.00 89 1780.6
20260504184057 69 322 0.0 1.7 0.00 0.03 0.00 89 156.9
20260504183557 69 322 0.0 1.7 0.00 0.03 0.00 89 291.7
20260504183059 69 322 1.7 1.7 0.00 0.03 0.00 89 808.3
20260504182559 69 292 0.9 1.7 0.00 0.03 0.00 89 1284.2
20260504182059 69 292 0.0 1.7 0.00 0.03 0.00 89 1873.6
20260504181601 69 262 0.0 1.7 0.00 0.03 0.00 89 456.3
20260504181058 69 153 0.9 1.7 0.00 0.03 0.00 89 984.2
20260504180600 69 183 0.9 1.7 0.00 0.03 0.00 89 322.8
20260504180103 69 0 0.0 1.7 0.00 0.03 0.00 89 125.8
20260504175557 69 51 0.0 1.7 0.00 0.03 0.00 89 1480.7
20260504175057 69 51 0.9 1.7 0.00 0.03 0.00 89 1398.0
20260504174600 69 0 0.0 2.6 0.00 0.03 0.00 89 1956.3
20260504174101 69 323 0.9 2.6 0.00 0.03 0.00 89 2049.4
20260504173558 69 273 0.9 2.6 0.00 0.03 0.00 89 404.5
20260504173100 69 352 0.9 2.6 0.00 0.03 0.00 89 2132.1
20260504172557 69 352 0.9 1.7 0.00 0.03 0.00 89 1811.6
20260504172100 69 314 0.0 1.7 0.00 0.03 0.00 89 312.4
20260504171600 69 0 0.0 1.7 0.00 0.03 0.00 89 1718.5
20260504171057 69 214 0.9 2.6 0.00 0.03 0.00 89 374.6
20260504170559 69 132 0.9 3.5 0.00 0.03 0.00 89 1873.6
20260504151057 69 315 0.0 1.7 0.00 0.03 0.00 89 155.7
20260504150559 69 0 0.0 1.7 0.00 0.03 0.00 88 559.8
20260504150111 70 315 0.0 1.7 0.00 0.03 0.00 89 394.1
20260504141059 70 59 0.0 1.7 0.00 0.03 0.00 88 1304.9
20260504140557 70 0 0.9 1.7 0.00 0.03 0.00 88 1470.4
20260504130558 70 319 2.6 7.8 0.00 0.03 0.03 87 322.8
20260504110559 70 0 0.9 1.7 0.00 0.02 0.02 88 383.8
20260504100559 71 323 0.9 4.3 0.01 0.01 0.01 87 477.0
20260504081559 73 99 0.9 3.5 0.00 0.00 0.00 84 1780.6
20260504081103 73 136 0.9 4.3 0.00 0.00 0.00 83 1211.8
20260504080559 73 160 0.9 5.2 0.00 0.00 0.00 83 73.9
20260504080114 73 162 2.6 5.2 0.00 0.00 0.00 83 207.6
20260504050559 80 89 5.2 10.4 0.00 0.00 0.00 72 559.8
20260504045558 80 90 3.5 7.0 0.00 0.00 0.00 73 1542.8
20260504045058 80 124 2.6 7.0 0.00 0.00 0.00 72 1625.5
20260504044558 80 130 4.3 7.0 0.00 0.00 0.00 73 311.3
20260504044058 80 133 3.5 7.0 0.00 0.00 0.00 74 1304.9
20260504043558 81 119 3.5 9.6 0.00 0.00 0.00 73 300.9
20260504043112 80 115 5.2 10.4 0.00 0.00 0.00 74 632.3
20260504042603 80 146 6.1 10.4 0.00 0.00 0.00 74 1635.8
20260504042100 80 130 3.5 7.8 0.00 0.00 0.00 76 808.3
20260504041607 80 126 4.3 7.8 0.00 0.00 0.00 76 405.7
20260504041059 80 131 1.7 9.6 0.00 0.00 0.00 76 1811.6
20260504040559 80 150 5.2 9.6 0.00 0.00 0.00 75 404.5
20260504040123 80 157 5.2 9.6 0.00 0.00 0.00 74 1811.6
20260504035559 81 127 6.1 10.4 0.00 0.00 0.00 73 549.5
20260504035059 80 53 4.3 10.4 0.00 0.00 0.00 76 1366.9
20260504034600 80 158 4.3 11.3 0.00 0.00 0.00 76 42.7
20260504034058 80 115 6.1 11.3 0.00 0.00 0.00 76 42.7
20260504033558 80 142 5.2 11.3 0.00 0.00 0.00 77 146.5
20260504033102 80 74 2.6 8.7 0.00 0.00 0.00 77 953.2
20260504032559 80 86 5.2 8.7 0.00 0.00 0.00 76 1149.7
20260504032059 80 117 5.2 10.4 0.00 0.00 0.00 77 973.8
20260504031601 79 123 4.3 10.4 0.00 0.00 0.00 78 808.3
20260504031059 79 166 6.1 10.4 0.00 0.00 0.00 78 300.9
20260504030558 79 162 0.9 3.5 0.00 0.00 0.00 78 1873.6
20260504030059 80 24 0.9 3.5 0.00 0.00 0.00 79 1946.0
20260504025558 80 109 0.9 4.3 0.00 0.00 0.00 78 1646.2
20260504025059 80 271 2.6 4.3 0.00 0.00 0.00 77 1470.4
20260504024557 80 252 1.7 3.5 0.00 0.00 0.00 79 1863.3
20260504024059 79 252 1.7 3.5 0.00 0.00 0.00 79 1863.3
20260504023559 78 204 1.7 5.2 0.00 0.00 0.00 81 984.2
20260504023103 78 200 0.9 5.2 0.00 0.00 0.00 80 1118.7
20260504022559 78 198 2.6 5.2 0.00 0.00 0.00 80 374.6
20260504022059 78 157 3.5 7.8 0.00 0.00 0.00 80 466.6
20260504021601 79 149 3.5 7.8 0.00 0.00 0.00 78 818.6
20260504021058 80 184 2.6 6.1 0.00 0.00 0.00 78 291.7
20260504020602 80 128 2.6 5.2 0.00 0.00 0.00 77 1387.6
20260504015558 80 152 1.7 5.2 0.00 0.00 0.00 77 1697.9
20260504015059 79 0 1.7 5.2 0.00 0.00 0.00 78 1377.3
20260504014607 79 131 2.6 5.2 0.00 0.00 0.00 78 1315.2
20260504014059 78 156 0.9 3.5 0.00 0.00 0.00 79 72.7
20260504013558 78 189 1.7 4.3 0.00 0.00 0.00 79 1697.9
20260504013113 78 190 2.6 5.2 0.00 0.00 0.00 80 290.5
20260504012600 77 182 2.6 5.2 0.00 0.00 0.00 80 217.9
20260504012059 77 191 1.7 3.5 0.00 0.00 0.00 81 146.5
20260504011600 76 261 1.7 3.5 0.00 0.00 0.00 82 1201.4
20260504011058 76 202 0.9 7.8 0.00 0.00 0.00 82 373.4
20260504010559 76 205 3.5 7.8 0.00 0.00 0.00 82 2111.4
20260504010105 76 217 4.3 10.4 0.00 0.00 0.00 81 984.2
20260504005559 76 209 5.2 10.4 0.00 0.00 0.00 80 1532.4
20260504005102 77 177 4.3 8.7 0.00 0.00 0.00 80 1801.2
20260504004610 77 202 5.2 10.4 0.00 0.00 0.00 80 207.6
20260504004058 77 136 5.2 10.4 0.00 0.00 0.00 81 1977.0
20260504003558 77 173 6.1 9.6 0.00 0.00 0.00 80 208.8
20260504003105 77 179 5.2 9.6 0.00 0.00 0.00 81 302.1
20260504002558 78 182 3.5 7.8 0.00 0.00 0.00 80 1066.9
20260504002058 78 171 3.5 10.4 0.00 0.00 0.00 79 1790.9
20260504001608 78 136 5.2 10.4 0.00 0.00 0.00 79 1956.3
20260504001058 79 185 5.2 8.7 0.00 0.00 0.00 78 1542.8
20260504000557 79 161 3.5 7.0 0.00 0.00 0.00 79 2028.7
20260504000129 79 173 2.6 6.1 0.00 0.00 0.00 79 1315.2
20260503235558 79 198 1.7 5.2 0.00 0.00 0.00 79 1304.9
20260503235059 79 161 0.9 3.5 0.00 0.00 0.00 79 2142.4
20260503234559 78 109 1.7 3.5 0.00 0.00 0.00 79 383.8
20260503234059 77 146 1.7 3.5 0.00 0.00 0.00 80 1222.1
20260503233559 76 130 0.9 3.5 0.00 0.00 0.00 84 228.3
20260503233108 75 53 1.7 3.5 0.00 0.00 0.00 85 1708.2
20260503232600 74 46 1.7 3.5 0.00 0.00 0.00 86 207.6
20260503232057 74 9 1.7 3.5 0.00 0.00 0.00 86 798.0
20260503231558 74 296 1.7 3.5 0.00 0.00 0.00 86 1553.1
20260503231117 73 258 0.9 3.5 0.00 0.00 0.00 85 125.8
20260503230603 73 186 1.7 5.2 0.00 0.00 0.00 85 1635.8
20260503230104 73 138 2.6 5.2 0.00 0.00 0.00 85 2049.4
20260503225602 74 125 0.9 3.5 0.00 0.00 0.00 84 53.1
20260503225104 74 153 1.7 3.5 0.00 0.00 0.00 84 404.5
20260503224602 75 147 1.7 2.6 0.00 0.00 0.00 83 374.6